User: anonymous   Login
Location: Unspecified
(0.0000°N, 0.0000°E)
Time: 00:24:26
(UTC+00:00)
Language:

Kosmos-2266 - Orbit

View from above orbital plane
View from above orbital plane
View from above satellite
View from above satellite

Ground track
Ground track

The orbit data is extracted from the following two-line orbital elements,

1 22888U 93070A   21023.73417521  .00000015  00000-0  77777-6 0  9992
2 22888  82.9508  99.3431 0046746 285.9169 187.7216 13.74944488363464
Epoch (UTC): 23 January 2021 17:37:12
Eccentricity: 0.0046746
inclination: 82.9508°
perigee height: 947 km
apogee height: 1016 km
right ascension of ascending node: 99.3431°
argument of perigee: 285.9169°
revolutions per day: 13.74944488
mean anomaly at epoch: 187.7216°
orbit number at epoch: 36346

The dashed part of the orbit path shows where the satellite is in the earth's shadow,  

DLR